IBE250 KMIA-LEMD

Flight info

Callsign IBE250
Flight time 2h 52m
Altitude 35000
Route FOLZZ3 SUMRS M204 SOORY 40N050W 41N040W 42N030W 42N020W BANAL ADORO ZMR ZMR5C
Aircraft A346/H-VGDW/C

Departure

Time 2026-05-06 19:14
Airport Miami International Airport (KMIA)

Arrival

Time 2026-05-06 22:07
Airport Adolfo Suárez Madrid–Barajas Airport (LEMD)
Time Latitude Longitude Altitude Speed Heading
2026-05-06 18:20 25.79362 -80.28077 49 ft 0 kts 167°
2026-05-06 18:53 25.79363 -80.28077 30 ft 0 kts 167°
2026-05-06 18:54 25.79364 -80.28078 30 ft 0 kts 167°
2026-05-06 18:54 25.79365 -80.28078 30 ft 0 kts 167°
2026-05-06 18:55 25.79382 -80.28082 29 ft 0 kts 167°
2026-05-06 18:55 25.79407 -80.28088 28 ft 0 kts 167°
2026-05-06 18:55 25.79419 -80.28091 27 ft 0 kts 167°
2026-05-06 18:56 25.79418 -80.28091 27 ft 0 kts 167°
2026-05-06 18:56 25.79415 -80.28090 29 ft 0 kts 167°
2026-05-06 18:57 25.79417 -80.28091 29 ft 0 kts 167°
2026-05-06 18:57 25.79430 -80.28094 29 ft 0 kts 167°
2026-05-06 18:58 25.79429 -80.28094 29 ft 1 kts 175°
2026-05-06 18:58 25.79421 -80.28095 29 ft 2 kts 190°
2026-05-06 18:58 25.79403 -80.28106 29 ft 4 kts 218°
2026-05-06 18:58 25.79395 -80.28115 29 ft 0 kts 232°
2026-05-06 19:00 25.79395 -80.28116 29 ft 0 kts 232°
2026-05-06 19:00 25.79393 -80.28119 29 ft 1 kts 232°
2026-05-06 19:01 25.79384 -80.28133 37 ft 4 kts 239°
2026-05-06 19:01 25.79375 -80.28162 29 ft 4 kts 257°
2026-05-06 19:01 25.79367 -80.28203 28 ft 7 kts 258°
2026-05-06 19:01 25.79343 -80.28259 28 ft 9 kts 238°
2026-05-06 19:02 25.79323 -80.28285 28 ft 2 kts 224°
2026-05-06 19:02 25.79308 -80.28301 28 ft 4 kts 224°
2026-05-06 19:02 25.79299 -80.28311 28 ft 1 kts 224°
2026-05-06 19:02 25.79281 -80.28329 28 ft 5 kts 224°
2026-05-06 19:03 25.79250 -80.28363 28 ft 4 kts 224°
2026-05-06 19:03 25.79244 -80.28371 28 ft 4 kts 234°
2026-05-06 19:03 25.79235 -80.28416 27 ft 8 kts 279°
2026-05-06 19:03 25.79256 -80.28474 27 ft 3 kts 298°
2026-05-06 19:04 25.79269 -80.28500 26 ft 5 kts 299°
2026-05-06 19:04 25.79291 -80.28545 30 ft 8 kts 298°
2026-05-06 19:04 25.79323 -80.28614 27 ft 12 kts 298°
2026-05-06 19:04 25.79369 -80.28702 26 ft 14 kts 300°
2026-05-06 19:05 25.79420 -80.28802 25 ft 15 kts 300°
2026-05-06 19:05 25.79459 -80.28877 29 ft 11 kts 300°
2026-05-06 19:05 25.79497 -80.28951 29 ft 11 kts 300°
2026-05-06 19:05 25.79540 -80.29032 27 ft 13 kts 300°
2026-05-06 19:06 25.79568 -80.29088 29 ft 1 kts 299°
2026-05-06 19:06 25.79579 -80.29110 26 ft 5 kts 299°
2026-05-06 19:06 25.79607 -80.29166 28 ft 10 kts 299°
2026-05-06 19:06 25.79642 -80.29235 27 ft 10 kts 299°
2026-05-06 19:07 25.79683 -80.29316 26 ft 14 kts 299°
2026-05-06 19:07 25.79712 -80.29372 29 ft 11 kts 300°
2026-05-06 19:07 25.79719 -80.29386 28 ft 0 kts 300°
2026-05-06 19:11 25.79721 -80.29389 30 ft 2 kts 300°
2026-05-06 19:11 25.79730 -80.29408 28 ft 4 kts 300°
2026-05-06 19:11 25.79748 -80.29443 29 ft 7 kts 300°
2026-05-06 19:11 25.79779 -80.29503 31 ft 11 kts 300°
2026-05-06 19:12 25.79824 -80.29591 24 ft 15 kts 300°
2026-05-06 19:12 25.79879 -80.29699 24 ft 17 kts 300°
2026-05-06 19:12 25.79923 -80.29801 22 ft 15 kts 295°
2026-05-06 19:12 25.79963 -80.29914 20 ft 17 kts 287°
2026-05-06 19:13 25.79996 -80.30034 21 ft 10 kts 288°
2026-05-06 19:13 25.80030 -80.30099 23 ft 9 kts 331°
2026-05-06 19:13 25.80069 -80.30067 25 ft 10 kts 74°
2026-05-06 19:13 25.80076 -80.29967 20 ft 25 kts 87°
2026-05-06 19:14 25.80095 -80.29515 23 ft 90 kts 87°
2026-05-06 19:14 25.80134 -80.28600 27 ft 145 kts 87°
2026-05-06 19:14 25.80196 -80.27319 161 ft 177 kts 91°
2026-05-06 19:14 25.80255 -80.25933 710 ft 182 kts 89°
2026-05-06 19:15 25.80110 -80.24522 1244 ft 187 kts 113°
2026-05-06 19:15 25.79465 -80.23244 1905 ft 192 kts 121°
2026-05-06 19:15 25.78746 -80.21939 2243 ft 204 kts 120°
2026-05-06 19:15 25.78017 -80.20513 2510 ft 220 kts 118°
2026-05-06 19:16 25.77270 -80.18956 2778 ft 237 kts 118°
2026-05-06 19:16 25.76458 -80.17281 3080 ft 254 kts 119°
2026-05-06 19:16 25.75880 -80.16124 3328 ft 263 kts 119°
2026-05-06 19:16 25.74701 -80.13744 4145 ft 267 kts 117°
2026-05-06 19:17 25.74254 -80.12444 4526 ft 269 kts 101°
2026-05-06 19:17 25.74354 -80.10366 4950 ft 277 kts 71°
2026-05-06 19:17 25.75779 -80.08016 5821 ft 279 kts 48°
2026-05-06 19:17 25.77082 -80.06407 6539 ft 280 kts 48°
2026-05-06 19:18 25.77960 -80.05314 6982 ft 281 kts 48°
2026-05-06 19:18 25.79262 -80.03683 7644 ft 282 kts 47°
2026-05-06 19:18 25.80562 -80.02046 8319 ft 283 kts 47°
2026-05-06 19:18 25.81849 -80.00422 8931 ft 285 kts 47°
2026-05-06 19:19 25.83179 -79.98740 9549 ft 287 kts 47°
2026-05-06 19:19 25.84481 -79.97088 10138 ft 289 kts 47°
2026-05-06 19:19 25.85825 -79.95385 10494 ft 299 kts 47°
2026-05-06 19:19 25.87232 -79.93601 10738 ft 313 kts 47°
2026-05-06 19:20 25.88697 -79.91742 10964 ft 326 kts 47°
2026-05-06 19:20 25.90224 -79.89803 11203 ft 340 kts 47°
2026-05-06 19:20 25.91810 -79.87786 11435 ft 353 kts 47°
2026-05-06 19:20 25.93456 -79.85691 11663 ft 366 kts 47°
2026-05-06 19:21 25.95155 -79.83527 11950 ft 376 kts 47°
2026-05-06 19:21 25.96880 -79.81326 12479 ft 378 kts 47°
2026-05-06 19:21 25.98611 -79.79117 13093 ft 379 kts 47°
2026-05-06 19:21 26.00343 -79.76904 13660 ft 381 kts 47°
2026-05-06 19:22 26.02088 -79.74675 14176 ft 383 kts 47°
2026-05-06 19:22 26.03848 -79.72425 14614 ft 386 kts 46°
2026-05-06 19:22 26.05617 -79.70162 15059 ft 389 kts 46°
2026-05-06 19:22 26.07413 -79.67865 15494 ft 392 kts 46°
2026-05-06 19:23 26.09223 -79.65548 15932 ft 396 kts 46°
2026-05-06 19:23 26.10963 -79.63154 16347 ft 400 kts 50°
2026-05-06 19:23 26.12611 -79.60637 16794 ft 404 kts 51°
2026-05-06 19:23 26.14246 -79.58072 17201 ft 407 kts 51°
2026-05-06 19:24 26.15883 -79.55489 17607 ft 410 kts 51°
2026-05-06 19:24 26.17517 -79.52912 18004 ft 413 kts 51°
2026-05-06 19:24 26.19182 -79.50282 18387 ft 417 kts 51°
2026-05-06 19:24 26.20864 -79.47628 18693 ft 421 kts 51°
2026-05-06 19:25 26.22559 -79.44954 19026 ft 424 kts 51°
2026-05-06 19:25 26.24268 -79.42256 19381 ft 426 kts 51°
2026-05-06 19:25 26.25984 -79.39543 19748 ft 429 kts 51°
2026-05-06 19:25 26.27815 -79.36922 20087 ft 428 kts 44°
2026-05-06 19:26 26.29922 -79.34577 20435 ft 427 kts 37°
2026-05-06 19:26 26.32262 -79.32547 20779 ft 426 kts 31°
2026-05-06 19:26 26.34748 -79.30729 21125 ft 428 kts 29°
2026-05-06 19:26 26.37270 -79.28939 21452 ft 431 kts 28°
2026-05-06 19:27 26.39811 -79.27143 21788 ft 433 kts 28°
2026-05-06 19:27 26.42380 -79.25347 22098 ft 436 kts 28°
2026-05-06 19:27 26.44951 -79.23527 22418 ft 439 kts 28°
2026-05-06 19:27 26.47551 -79.21688 22648 ft 444 kts 28°
2026-05-06 19:28 26.50159 -79.19820 23037 ft 445 kts 29°
2026-05-06 19:28 26.52769 -79.17946 23405 ft 447 kts 29°
2026-05-06 19:28 26.55394 -79.16064 23704 ft 449 kts 29°
2026-05-06 19:28 26.57999 -79.14196 23956 ft 452 kts 28°
2026-05-06 19:29 26.60652 -79.12296 24234 ft 454 kts 28°
2026-05-06 19:29 26.63322 -79.10382 24524 ft 456 kts 28°
2026-05-06 19:29 26.66001 -79.08462 24822 ft 457 kts 28°
2026-05-06 19:29 26.68688 -79.06536 25087 ft 459 kts 28°
2026-05-06 19:30 26.71388 -79.04600 25373 ft 461 kts 28°
2026-05-06 19:30 26.74117 -79.02642 25660 ft 463 kts 28°
2026-05-06 19:30 26.76855 -79.00675 25951 ft 465 kts 28°
2026-05-06 19:30 26.79590 -78.98710 26228 ft 467 kts 28°
2026-05-06 19:31 26.82337 -78.96736 26507 ft 469 kts 28°
2026-05-06 19:31 26.85093 -78.94756 26791 ft 471 kts 28°
2026-05-06 19:31 26.90630 -78.90771 27338 ft 475 kts 28°
2026-05-06 19:32 26.93417 -78.88764 27622 ft 477 kts 28°
2026-05-06 19:32 26.96213 -78.86748 27913 ft 478 kts 28°
2026-05-06 19:32 26.99022 -78.84722 28186 ft 480 kts 27°
2026-05-06 19:32 27.01833 -78.82692 28458 ft 482 kts 27°
2026-05-06 19:33 27.04652 -78.80653 28838 ft 482 kts 27°
2026-05-06 19:33 27.07431 -78.78641 29258 ft 480 kts 27°
2026-05-06 19:33 27.10235 -78.76613 29695 ft 479 kts 27°
2026-05-06 19:33 27.13035 -78.74586 30117 ft 478 kts 27°
2026-05-06 19:34 27.15832 -78.72560 30463 ft 477 kts 27°
2026-05-06 19:34 27.18619 -78.70542 30791 ft 476 kts 27°
2026-05-06 19:34 27.21388 -78.68493 31116 ft 478 kts 28°
2026-05-06 19:34 27.24084 -78.66284 31464 ft 479 kts 31°
2026-05-06 19:35 27.26676 -78.63915 31869 ft 479 kts 34°
2026-05-06 19:35 27.29148 -78.61401 32248 ft 480 kts 37°
2026-05-06 19:35 27.31486 -78.58759 32573 ft 482 kts 40°
2026-05-06 19:35 27.33730 -78.55938 32912 ft 485 kts 43°
2026-05-06 19:36 27.35865 -78.52983 33244 ft 486 kts 45°
2026-05-06 19:36 27.37968 -78.49993 33547 ft 486 kts 45°
2026-05-06 19:36 27.40066 -78.46993 33814 ft 487 kts 45°
2026-05-06 19:36 27.42168 -78.43985 34051 ft 489 kts 45°
2026-05-06 19:37 27.44273 -78.40974 34268 ft 490 kts 45°
2026-05-06 19:37 27.46385 -78.37953 34487 ft 491 kts 45°
2026-05-06 19:37 27.48501 -78.34926 34702 ft 492 kts 45°
2026-05-06 19:37 27.50621 -78.31892 34910 ft 493 kts 45°
2026-05-06 19:38 27.52746 -78.28851 35080 ft 494 kts 45°
2026-05-06 19:38 27.54875 -78.25803 35085 ft 495 kts 45°
2026-05-06 19:38 27.59111 -78.19727 35086 ft 496 kts 45°
2026-05-06 19:39 27.63378 -78.13602 35097 ft 496 kts 45°
2026-05-06 19:39 27.67651 -78.07459 35085 ft 496 kts 45°
2026-05-06 19:40 27.71917 -78.01319 35089 ft 496 kts 45°
2026-05-06 19:40 35.32747 -66.40023 34834 ft 480 kts 50°
2026-05-06 19:41 35.34649 -66.36670 35035 ft 476 kts 47°
2026-05-06 19:41 35.36517 -66.33346 35111 ft 472 kts 47°
2026-05-06 19:41 35.40227 -66.26762 35166 ft 471 kts 47°
2026-05-06 19:42 35.43956 -66.20149 35199 ft 472 kts 47°
2026-05-06 19:42 35.45823 -66.16830 35517 ft 471 kts 47°
2026-05-06 19:42 35.47671 -66.13532 35936 ft 467 kts 47°
2026-05-06 19:43 35.49506 -66.10253 36313 ft 464 kts 47°
2026-05-06 19:43 35.51334 -66.06989 36582 ft 463 kts 47°
2026-05-06 19:43 35.53165 -66.03721 36829 ft 463 kts 47°
2026-05-06 19:43 35.54993 -66.00454 37048 ft 463 kts 47°
2026-05-06 19:44 35.56816 -65.97191 37279 ft 462 kts 47°
2026-05-06 19:44 35.58634 -65.93934 37510 ft 462 kts 47°
2026-05-06 19:44 35.60430 -65.90724 37717 ft 461 kts 47°
2026-05-06 19:44 35.62255 -65.87457 37878 ft 462 kts 48°
2026-05-06 19:45 35.64076 -65.84187 38017 ft 463 kts 48°
2026-05-06 19:45 35.65894 -65.80913 38200 ft 463 kts 48°
2026-05-06 19:45 35.67710 -65.77641 38383 ft 463 kts 48°
2026-05-06 19:45 35.69525 -65.74368 38556 ft 462 kts 48°
2026-05-06 19:46 35.71338 -65.71097 38723 ft 462 kts 48°
2026-05-06 19:46 35.73152 -65.67822 38864 ft 462 kts 48°
2026-05-06 19:46 35.74963 -65.64551 38989 ft 462 kts 48°
2026-05-06 19:46 35.76773 -65.61279 39107 ft 462 kts 48°
2026-05-06 19:47 35.80410 -65.54711 39176 ft 465 kts 49°
2026-05-06 19:47 35.84052 -65.48095 39173 ft 466 kts 49°
2026-05-06 19:48 35.87695 -65.41466 39176 ft 466 kts 49°
2026-05-06 19:48 35.91310 -65.34877 39173 ft 466 kts 49°
2026-05-06 19:49 35.94953 -65.28233 39187 ft 467 kts 49°
2026-05-06 19:49 35.98599 -65.21575 39176 ft 469 kts 50°
2026-05-06 19:50 36.02242 -65.14895 39177 ft 469 kts 50°
2026-05-06 19:50 36.05888 -65.08199 39161 ft 469 kts 50°
2026-05-06 19:51 42.00001 -30.00699 39748 ft 505 kts 84°
2026-05-06 19:51 42.00238 -29.95985 39367 ft 515 kts 85°
2026-05-06 19:51 42.00442 -29.91142 39217 ft 520 kts 86°
2026-05-06 19:51 42.00637 -29.86263 39149 ft 522 kts 86°
2026-05-06 19:52 42.01028 -29.76497 39093 ft 522 kts 86°
2026-05-06 19:52 42.01421 -29.66723 39082 ft 522 kts 86°
2026-05-06 19:53 42.01811 -29.56951 39067 ft 522 kts 86°
2026-05-06 19:53 42.02194 -29.47227 39062 ft 522 kts 86°
2026-05-06 19:54 42.02569 -29.37472 39051 ft 522 kts 86°
2026-05-06 19:54 42.02936 -29.27695 39052 ft 522 kts 86°
2026-05-06 19:55 42.03296 -29.17911 39051 ft 522 kts 86°
2026-05-06 19:55 42.03647 -29.08136 39051 ft 522 kts 86°
2026-05-06 19:56 42.03989 -28.98373 39051 ft 522 kts 86°
2026-05-06 19:56 42.04323 -28.88599 39051 ft 522 kts 86°
2026-05-06 19:57 42.04649 -28.78828 39049 ft 522 kts 86°
2026-05-06 19:57 42.04966 -28.69120 39050 ft 521 kts 87°
2026-05-06 19:58 42.05275 -28.59360 39040 ft 521 kts 87°
2026-05-06 19:58 42.05428 -28.54443 38329 ft 521 kts 87°
2026-05-06 19:58 42.05578 -28.49604 39181 ft 515 kts 87°
2026-05-06 19:59 42.05867 -28.39866 39078 ft 522 kts 87°
2026-05-06 19:59 42.06154 -28.30047 39064 ft 523 kts 87°
2026-05-06 20:00 42.06430 -28.20236 39063 ft 523 kts 88°
2026-05-06 20:00 42.06698 -28.10420 39062 ft 523 kts 88°
2026-05-06 20:01 42.06959 -28.00628 39060 ft 523 kts 88°
2026-05-06 20:01 42.07210 -27.90835 39065 ft 523 kts 88°
2026-05-06 20:02 42.07454 -27.81035 39062 ft 523 kts 88°
2026-05-06 20:02 42.07689 -27.71232 39055 ft 524 kts 88°
2026-05-06 20:03 42.07916 -27.61405 39068 ft 524 kts 88°
2026-05-06 20:03 42.08135 -27.51600 39069 ft 523 kts 88°
2026-05-06 20:04 42.09203 -22.97497 38768 ft 520 kts 85°
2026-05-06 20:04 42.09373 -22.92683 39026 ft 504 kts 81°
2026-05-06 20:04 42.09167 -22.83258 39171 ft 497 kts 90°
2026-05-06 20:05 42.08789 -22.74006 39131 ft 498 kts 85°
2026-05-06 20:05 42.08515 -22.64685 39118 ft 497 kts 84°
2026-05-06 20:06 42.08296 -22.55363 39115 ft 497 kts 84°
2026-05-06 20:06 42.08089 -22.46035 39113 ft 497 kts 84°
2026-05-06 20:07 42.07883 -22.36723 39121 ft 497 kts 85°
2026-05-06 20:07 42.07666 -22.27458 39117 ft 497 kts 85°
2026-05-06 20:08 42.07440 -22.18137 39113 ft 497 kts 85°
2026-05-06 20:08 42.07247 -22.10395 39113 ft 497 kts 85°
2026-05-06 20:09 42.07008 -22.01076 39112 ft 497 kts 85°
2026-05-06 20:09 42.06762 -21.91772 39110 ft 497 kts 85°
2026-05-06 20:10 42.06509 -21.82461 39112 ft 496 kts 85°
2026-05-06 20:10 42.06254 -21.73157 39119 ft 496 kts 86°
2026-05-06 20:11 42.05984 -21.63855 39117 ft 496 kts 86°
2026-05-06 20:11 42.05706 -21.54551 39114 ft 497 kts 86°
2026-05-06 20:12 42.05426 -21.45310 39135 ft 497 kts 86°
2026-05-06 20:12 42.05139 -21.35996 39119 ft 497 kts 86°
2026-05-06 20:13 42.04837 -21.26679 39116 ft 498 kts 87°
2026-05-06 20:13 42.04529 -21.17368 39109 ft 498 kts 87°
2026-05-06 20:14 42.04218 -21.08044 39016 ft 498 kts 87°
2026-05-06 20:14 42.04057 -21.03378 38781 ft 498 kts 87°
2026-05-06 20:14 42.03894 -20.98707 38502 ft 499 kts 87°
2026-05-06 20:15 42.03729 -20.94025 38215 ft 503 kts 87°
2026-05-06 20:15 42.03562 -20.89279 37940 ft 508 kts 87°
2026-05-06 20:15 42.03392 -20.84523 37662 ft 510 kts 87°
2026-05-06 20:15 42.03218 -20.79740 37414 ft 511 kts 87°
2026-05-06 20:16 42.03043 -20.74948 37159 ft 512 kts 88°
2026-05-06 20:16 42.02864 -20.70168 37124 ft 512 kts 88°
2026-05-06 20:16 42.02500 -20.60581 37116 ft 513 kts 88°
2026-05-06 20:17 42.02129 -20.51043 37116 ft 513 kts 88°
2026-05-06 20:17 42.01750 -20.41461 37120 ft 512 kts 88°
2026-05-06 20:18 42.01363 -20.31865 37116 ft 513 kts 88°
2026-05-06 20:18 42.00966 -20.22284 37105 ft 512 kts 88°
2026-05-06 20:19 42.00560 -20.12696 37134 ft 512 kts 88°
2026-05-06 20:19 42.00152 -20.03190 37123 ft 511 kts 87°
2026-05-06 20:20 42.00131 -19.93658 37115 ft 507 kts 83°
2026-05-06 20:20 42.00338 -19.84152 37118 ft 507 kts 82°
2026-05-06 20:21 42.00540 -19.74641 37124 ft 507 kts 83°
2026-05-06 20:21 42.00726 -19.65141 37122 ft 508 kts 83°
2026-05-06 20:22 42.00903 -19.55627 37122 ft 508 kts 83°
2026-05-06 20:22 42.01069 -19.46123 37116 ft 508 kts 83°
2026-05-06 20:23 42.01225 -19.36626 37122 ft 507 kts 83°
2026-05-06 20:23 42.01375 -19.27186 37118 ft 507 kts 83°
2026-05-06 20:24 42.01518 -19.17698 37118 ft 507 kts 83°
2026-05-06 20:24 42.01653 -19.08143 37122 ft 507 kts 83°
2026-05-06 20:25 42.01778 -18.98664 37118 ft 506 kts 83°
2026-05-06 20:25 42.01897 -18.89202 37121 ft 506 kts 83°
2026-05-06 20:26 42.02009 -18.79720 37118 ft 506 kts 83°
2026-05-06 20:26 42.02112 -18.70238 37118 ft 506 kts 83°
2026-05-06 20:27 42.02207 -18.60768 37118 ft 506 kts 83°
2026-05-06 20:27 42.02294 -18.51351 37118 ft 506 kts 83°
2026-05-06 20:28 42.02378 -18.41870 37436 ft 507 kts 86°
2026-05-06 20:28 42.02438 -18.37067 37333 ft 517 kts 86°
2026-05-06 20:28 42.02476 -18.32189 37316 ft 525 kts 87°
2026-05-06 20:29 42.02528 -18.22279 37295 ft 531 kts 87°
2026-05-06 20:29 42.02575 -18.12323 37290 ft 531 kts 87°
2026-05-06 20:30 42.02639 -17.97469 37294 ft 530 kts 87°
2026-05-06 20:31 42.02677 -17.87545 37288 ft 529 kts 87°
2026-05-06 20:31 42.02705 -17.77609 37276 ft 530 kts 87°
2026-05-06 20:32 42.02722 -17.67680 37285 ft 530 kts 86°
2026-05-06 20:32 42.02735 -17.57759 37279 ft 529 kts 87°
2026-05-06 20:33 42.02738 -17.47829 37281 ft 529 kts 87°
2026-05-06 20:33 42.02733 -17.37910 37303 ft 530 kts 87°
2026-05-06 20:34 42.02717 -17.28047 37277 ft 530 kts 87°
2026-05-06 20:34 42.02695 -17.18098 37271 ft 530 kts 87°
2026-05-06 20:35 42.02663 -17.08139 37270 ft 530 kts 87°
2026-05-06 20:35 42.02621 -16.98253 37271 ft 531 kts 87°
2026-05-06 20:36 42.02573 -16.88289 37267 ft 531 kts 87°
2026-05-06 20:36 42.02516 -16.78335 37265 ft 531 kts 87°
2026-05-06 20:37 42.02450 -16.68370 37283 ft 531 kts 87°
2026-05-06 20:37 42.02373 -16.58469 37260 ft 531 kts 87°
2026-05-06 20:38 42.02290 -16.48460 37253 ft 531 kts 87°
2026-05-06 20:38 42.02200 -16.38576 37256 ft 531 kts 87°
2026-05-06 20:39 42.02098 -16.28621 37252 ft 532 kts 87°
2026-05-06 20:39 42.01989 -16.18631 37252 ft 532 kts 87°
2026-05-06 20:40 42.01871 -16.08651 37246 ft 532 kts 87°
2026-05-06 20:40 42.01745 -15.98691 37286 ft 532 kts 87°
2026-05-06 20:41 42.01606 -15.88729 37248 ft 532 kts 87°
2026-05-06 20:41 42.01465 -15.78838 37245 ft 532 kts 87°
2026-05-06 20:42 42.01314 -15.68881 37239 ft 532 kts 87°
2026-05-06 20:42 42.01149 -15.58935 37247 ft 529 kts 86°
2026-05-06 20:43 42.00980 -15.49052 37241 ft 527 kts 86°
2026-05-06 20:43 42.00806 -15.39177 37238 ft 527 kts 86°
2026-05-06 20:44 42.00621 -15.29309 37232 ft 527 kts 87°
2026-05-06 20:44 42.00426 -15.19434 37233 ft 527 kts 87°
2026-05-06 20:45 42.00220 -15.09553 37230 ft 527 kts 87°
2026-05-06 20:45 42.00007 -14.99688 37232 ft 527 kts 87°
2026-05-06 20:46 41.99796 -14.89822 37107 ft 525 kts 86°
2026-05-06 20:46 41.99583 -14.80090 37091 ft 523 kts 86°
2026-05-06 20:47 41.99361 -14.70311 37093 ft 523 kts 86°
2026-05-06 20:47 41.99127 -14.60523 37087 ft 521 kts 86°
2026-05-06 20:48 41.98880 -14.50870 37093 ft 511 kts 86°
2026-05-06 20:48 41.98636 -14.41395 37082 ft 509 kts 86°
2026-05-06 20:49 41.98385 -14.31861 37078 ft 509 kts 86°
2026-05-06 20:49 41.98124 -14.22331 37088 ft 509 kts 86°
2026-05-06 20:50 41.97857 -14.12803 37083 ft 508 kts 87°
2026-05-06 20:50 41.97580 -14.03309 37080 ft 508 kts 87°
2026-05-06 20:51 41.97295 -13.93814 37080 ft 508 kts 87°
2026-05-06 20:51 41.97004 -13.84359 37109 ft 508 kts 88°
2026-05-06 20:52 41.96707 -13.74896 37081 ft 505 kts 88°
2026-05-06 20:52 41.96399 -13.65443 37078 ft 505 kts 88°
2026-05-06 20:53 41.96084 -13.55992 37076 ft 505 kts 88°
2026-05-06 20:53 41.95765 -13.46601 37084 ft 504 kts 88°
2026-05-06 20:54 41.95437 -13.37187 37075 ft 503 kts 88°
2026-05-06 20:54 41.95101 -13.27796 37071 ft 503 kts 88°
2026-05-06 20:55 41.94757 -13.18393 37065 ft 503 kts 88°
2026-05-06 20:55 41.94408 -13.08994 37076 ft 502 kts 89°
2026-05-06 20:56 41.94050 -12.99617 37067 ft 502 kts 89°
2026-05-06 20:56 41.93682 -12.90225 37066 ft 502 kts 89°
2026-05-06 20:57 41.93311 -12.80897 37064 ft 502 kts 89°
2026-05-06 20:57 41.92933 -12.71507 37066 ft 502 kts 89°
2026-05-06 20:58 41.92544 -12.62132 37062 ft 502 kts 89°
2026-05-06 20:58 41.92145 -12.52750 37057 ft 502 kts 89°
2026-05-06 20:59 41.91740 -12.43372 37057 ft 502 kts 89°
2026-05-06 20:59 41.91336 -12.34002 37063 ft 501 kts 90°
2026-05-06 21:00 41.90915 -12.24633 37055 ft 501 kts 90°
2026-05-06 21:00 41.90486 -12.15281 37056 ft 501 kts 90°
2026-05-06 21:01 41.90125 -12.07506 37056 ft 501 kts 90°
2026-05-06 21:01 41.89692 -11.98164 37053 ft 500 kts 91°
2026-05-06 21:02 41.89245 -11.88858 37047 ft 499 kts 91°
2026-05-06 21:02 41.88788 -11.79530 37048 ft 499 kts 91°
2026-05-06 21:03 41.88326 -11.70218 37044 ft 499 kts 91°
2026-05-06 21:03 41.87858 -11.60910 37042 ft 499 kts 91°
2026-05-06 21:04 41.87385 -11.51669 37036 ft 499 kts 91°
2026-05-06 21:04 41.86901 -11.42357 37042 ft 499 kts 91°
2026-05-06 21:05 41.86411 -11.33048 37041 ft 499 kts 92°
2026-05-06 21:05 41.85919 -11.23764 37042 ft 497 kts 92°
2026-05-06 21:06 41.85415 -11.14538 37032 ft 497 kts 92°
2026-05-06 21:06 41.84898 -11.05208 37031 ft 498 kts 92°
2026-05-06 21:07 41.84379 -10.95942 37032 ft 498 kts 92°
2026-05-06 21:07 41.83860 -10.86734 37027 ft 497 kts 93°
2026-05-06 21:08 41.83324 -10.77470 37027 ft 496 kts 93°
2026-05-06 21:08 41.82783 -10.68225 37026 ft 496 kts 93°
2026-05-06 21:09 41.82235 -10.58984 37023 ft 496 kts 93°
2026-05-06 21:09 41.81682 -10.49733 37024 ft 498 kts 94°
2026-05-06 21:10 41.81118 -10.40477 37020 ft 498 kts 94°
2026-05-06 21:10 41.80546 -10.31210 37017 ft 497 kts 94°
2026-05-06 21:11 41.79965 -10.21932 37010 ft 498 kts 94°
2026-05-06 21:11 41.79383 -10.12653 37007 ft 500 kts 94°
2026-05-06 21:12 41.78784 -10.03354 37005 ft 500 kts 95°
2026-05-06 21:12 41.78185 -9.94143 37006 ft 499 kts 95°
2026-05-06 21:13 41.77573 -9.84850 37004 ft 499 kts 95°
2026-05-06 21:13 41.76957 -9.75549 36995 ft 501 kts 95°
2026-05-06 21:14 41.76326 -9.66197 36988 ft 502 kts 95°
2026-05-06 21:14 41.75688 -9.56879 36986 ft 502 kts 95°
2026-05-06 21:15 41.75044 -9.47559 36986 ft 501 kts 95°
2026-05-06 21:15 41.74400 -9.38293 36976 ft 501 kts 96°
2026-05-06 21:16 41.73737 -9.28965 36982 ft 502 kts 96°
2026-05-06 21:16 41.73069 -9.19648 36970 ft 503 kts 96°
2026-05-06 21:17 41.72396 -9.10328 36966 ft 503 kts 96°
2026-05-06 21:17 41.71715 -9.01043 36964 ft 497 kts 96°
2026-05-06 21:18 41.71033 -8.91839 36957 ft 496 kts 97°
2026-05-06 21:18 41.70344 -8.82632 36956 ft 496 kts 97°
2026-05-06 21:19 41.69647 -8.73419 36952 ft 496 kts 97°
2026-05-06 21:19 41.68952 -8.64290 36950 ft 495 kts 97°
2026-05-06 21:20 41.68242 -8.55111 36947 ft 495 kts 97°
2026-05-06 21:20 41.67525 -8.45939 36936 ft 495 kts 97°
2026-05-06 21:21 41.66802 -8.36761 36949 ft 496 kts 97°
2026-05-06 21:21 41.66072 -8.27571 36951 ft 496 kts 98°
2026-05-06 21:22 41.65332 -8.18388 36958 ft 496 kts 98°
2026-05-06 21:22 41.64587 -8.09229 36953 ft 496 kts 98°
2026-05-06 21:23 41.63828 -7.99999 36959 ft 496 kts 98°
2026-05-06 21:23 41.63072 -7.90869 36956 ft 496 kts 98°
2026-05-06 21:24 41.62302 -7.81676 36954 ft 496 kts 98°
2026-05-06 21:24 41.61526 -7.72502 36954 ft 496 kts 98°
2026-05-06 21:25 41.60741 -7.63310 36965 ft 496 kts 98°
2026-05-06 21:25 41.59953 -7.54129 36949 ft 497 kts 98°
2026-05-06 21:26 41.59152 -7.44941 36946 ft 497 kts 98°
2026-05-06 21:26 41.58344 -7.35750 36854 ft 498 kts 98°
2026-05-06 21:26 41.57938 -7.31152 36576 ft 497 kts 98°
2026-05-06 21:27 41.57530 -7.26558 36324 ft 497 kts 99°
2026-05-06 21:27 41.57120 -7.21961 36064 ft 497 kts 99°
2026-05-06 21:27 41.56710 -7.17371 35804 ft 497 kts 99°
2026-05-06 21:27 41.56297 -7.12781 35555 ft 497 kts 99°
2026-05-06 21:28 41.55881 -7.08188 35313 ft 497 kts 99°
2026-05-06 21:28 41.55464 -7.03597 35051 ft 498 kts 99°
2026-05-06 21:28 41.55044 -6.98988 34799 ft 499 kts 99°
2026-05-06 21:28 41.54620 -6.94378 34561 ft 499 kts 100°
2026-05-06 21:29 41.54201 -6.89837 34325 ft 499 kts 100°
2026-05-06 21:29 41.53773 -6.85218 34090 ft 499 kts 100°
2026-05-06 21:29 41.53345 -6.80612 33822 ft 500 kts 100°
2026-05-06 21:29 41.52914 -6.76006 33551 ft 500 kts 100°
2026-05-06 21:30 41.52479 -6.71390 33270 ft 500 kts 100°
2026-05-06 21:30 41.52044 -6.66784 32993 ft 497 kts 100°
2026-05-06 21:30 41.51615 -6.62244 32718 ft 488 kts 100°
2026-05-06 21:30 41.51188 -6.57751 32451 ft 487 kts 100°
2026-05-06 21:31 41.50758 -6.53267 32199 ft 486 kts 100°
2026-05-06 21:31 41.50327 -6.48783 31951 ft 485 kts 100°
2026-05-06 21:31 41.49895 -6.44316 31916 ft 485 kts 100°
2026-05-06 21:32 41.49037 -6.35425 31912 ft 487 kts 99°
2026-05-06 21:32 41.48784 -6.21765 31916 ft 491 kts 88°
2026-05-06 21:33 41.49433 -6.12739 31917 ft 491 kts 86°
2026-05-06 21:33 41.50135 -6.03644 31906 ft 493 kts 86°
2026-05-06 21:34 41.50817 -5.94530 31914 ft 493 kts 86°
2026-05-06 21:34 41.51484 -5.85409 31916 ft 493 kts 86°
2026-05-06 21:35 41.52045 -5.76284 31910 ft 491 kts 92°
2026-05-06 21:35 41.51809 -5.71745 31746 ft 489 kts 101°
2026-05-06 21:35 41.51069 -5.67336 31476 ft 484 kts 110°
2026-05-06 21:36 41.49862 -5.63163 31223 ft 481 kts 118°
2026-05-06 21:36 41.48226 -5.59291 30973 ft 477 kts 126°
2026-05-06 21:36 41.46908 -5.56896 30795 ft 474 kts 132°
2026-05-06 21:36 41.44660 -5.53681 30549 ft 471 kts 139°
2026-05-06 21:37 41.42257 -5.50716 30314 ft 471 kts 140°
2026-05-06 21:37 41.39826 -5.47776 30072 ft 472 kts 140°
2026-05-06 21:37 41.37387 -5.44836 29787 ft 472 kts 140°
2026-05-06 21:37 41.34952 -5.41893 29503 ft 472 kts 140°
2026-05-06 21:38 41.32520 -5.38947 29213 ft 473 kts 140°
2026-05-06 21:38 41.30081 -5.35990 28923 ft 474 kts 140°
2026-05-06 21:38 41.27643 -5.33032 28636 ft 475 kts 140°
2026-05-06 21:38 41.25196 -5.30065 28354 ft 476 kts 140°
2026-05-06 21:39 41.22747 -5.27097 28075 ft 475 kts 140°
2026-05-06 21:39 41.20307 -5.24139 27807 ft 474 kts 140°
2026-05-06 21:39 41.17875 -5.21196 27545 ft 472 kts 140°
2026-05-06 21:39 41.15454 -5.18270 27273 ft 470 kts 140°
2026-05-06 21:40 41.13037 -5.15353 27000 ft 468 kts 140°
2026-05-06 21:40 41.10666 -5.12493 26711 ft 466 kts 140°
2026-05-06 21:40 41.08268 -5.09604 26382 ft 464 kts 140°
2026-05-06 21:40 41.05885 -5.06737 25990 ft 461 kts 140°
2026-05-06 21:41 41.03522 -5.03895 25574 ft 457 kts 140°
2026-05-06 21:41 41.01170 -5.01067 25145 ft 454 kts 140°
2026-05-06 21:41 40.98853 -4.98285 24735 ft 450 kts 140°
2026-05-06 21:41 40.96536 -4.95508 24315 ft 447 kts 140°
2026-05-06 21:42 40.94241 -4.92757 23874 ft 443 kts 140°
2026-05-06 21:42 40.91960 -4.90029 23447 ft 440 kts 140°
2026-05-06 21:42 40.89701 -4.87328 22968 ft 436 kts 140°
2026-05-06 21:42 40.87460 -4.84652 22511 ft 431 kts 140°
2026-05-06 21:43 40.85242 -4.82005 22065 ft 427 kts 140°
2026-05-06 21:43 40.83042 -4.79383 21642 ft 424 kts 140°
2026-05-06 21:43 40.80864 -4.76790 21209 ft 420 kts 140°
2026-05-06 21:43 40.78703 -4.74216 20785 ft 417 kts 141°
2026-05-06 21:44 40.76552 -4.71661 20367 ft 414 kts 141°
2026-05-06 21:44 40.74417 -4.69129 19942 ft 410 kts 141°
2026-05-06 21:44 40.72300 -4.66619 19518 ft 407 kts 141°
2026-05-06 21:44 40.70199 -4.64131 19104 ft 404 kts 141°
2026-05-06 21:45 40.68112 -4.61662 18684 ft 401 kts 141°
2026-05-06 21:45 40.66737 -4.60036 18410 ft 400 kts 141°
2026-05-06 21:45 40.64672 -4.57595 17950 ft 397 kts 141°
2026-05-06 21:45 40.62654 -4.55123 17500 ft 395 kts 138°
2026-05-06 21:46 40.60753 -4.52521 17064 ft 393 kts 135°
2026-05-06 21:46 40.58914 -4.49876 16658 ft 389 kts 135°
2026-05-06 21:46 40.57093 -4.47252 16252 ft 386 kts 135°
2026-05-06 21:46 40.55282 -4.44646 15833 ft 384 kts 135°
2026-05-06 21:47 40.53485 -4.42063 15435 ft 381 kts 135°
2026-05-06 21:47 40.51704 -4.39505 15063 ft 376 kts 135°
2026-05-06 21:47 40.49969 -4.37013 14952 ft 362 kts 135°
2026-05-06 21:47 40.48297 -4.34614 14852 ft 349 kts 135°
2026-05-06 21:48 40.46707 -4.32336 14743 ft 337 kts 135°
2026-05-06 21:48 40.45145 -4.30102 14620 ft 325 kts 135°
2026-05-06 21:48 40.43641 -4.27954 14512 ft 314 kts 135°
2026-05-06 21:48 40.42189 -4.25881 14421 ft 302 kts 135°
2026-05-06 21:49 40.40793 -4.23890 14327 ft 290 kts 135°
2026-05-06 21:49 40.39450 -4.21975 14221 ft 279 kts 136°
2026-05-06 21:49 40.38149 -4.20121 14160 ft 274 kts 136°
2026-05-06 21:49 40.36864 -4.18294 14064 ft 271 kts 136°
2026-05-06 21:50 40.35584 -4.16476 14006 ft 271 kts 136°
2026-05-06 21:50 40.34432 -4.14508 13924 ft 274 kts 122°
2026-05-06 21:50 40.33657 -4.12214 13913 ft 276 kts 112°
2026-05-06 21:50 40.33050 -4.09819 13997 ft 277 kts 111°
2026-05-06 21:51 40.32464 -4.07405 14073 ft 278 kts 110°
2026-05-06 21:51 40.31872 -4.04982 14157 ft 278 kts 111°
2026-05-06 21:51 40.31282 -4.02587 14136 ft 273 kts 111°
2026-05-06 21:51 40.30691 -4.00208 13986 ft 276 kts 111°
2026-05-06 21:52 40.30092 -3.97817 13908 ft 277 kts 111°
2026-05-06 21:52 40.29488 -3.95411 13679 ft 276 kts 111°
2026-05-06 21:52 40.28889 -3.93029 13372 ft 274 kts 111°
2026-05-06 21:52 40.28293 -3.90665 13060 ft 272 kts 111°
2026-05-06 21:53 40.27697 -3.88304 12726 ft 279 kts 111°
2026-05-06 21:53 40.27078 -3.85863 12495 ft 281 kts 111°
2026-05-06 21:53 40.26475 -3.83475 12281 ft 279 kts 111°
2026-05-06 21:53 40.25865 -3.81064 12049 ft 277 kts 111°
2026-05-06 21:54 40.25259 -3.78671 11809 ft 275 kts 111°
2026-05-06 21:54 40.24656 -3.76294 11462 ft 274 kts 110°
2026-05-06 21:54 40.24056 -3.73925 11142 ft 273 kts 110°
2026-05-06 21:54 40.23459 -3.71573 10849 ft 270 kts 110°
2026-05-06 21:55 40.22871 -3.69256 10583 ft 266 kts 110°
2026-05-06 21:55 40.22292 -3.66976 10323 ft 262 kts 110°
2026-05-06 21:55 40.21720 -3.64732 10069 ft 258 kts 110°
2026-05-06 21:55 40.21157 -3.62523 9812 ft 253 kts 110°
2026-05-06 21:56 40.20600 -3.60346 9503 ft 250 kts 110°
2026-05-06 21:56 40.20053 -3.58207 9163 ft 246 kts 110°
2026-05-06 21:56 40.19519 -3.56119 8885 ft 238 kts 110°
2026-05-06 21:56 40.18998 -3.54082 8541 ft 233 kts 110°
2026-05-06 21:57 40.18490 -3.52104 8243 ft 226 kts 110°
2026-05-06 21:57 40.17985 -3.50162 7906 ft 223 kts 110°
2026-05-06 21:57 40.17481 -3.48256 7567 ft 220 kts 110°
2026-05-06 21:57 40.16934 -3.46408 7234 ft 216 kts 122°
2026-05-06 21:58 40.16031 -3.44902 6925 ft 211 kts 133°
2026-05-06 21:58 40.15031 -3.43503 6595 ft 209 kts 128°
2026-05-06 21:58 40.14522 -3.41759 6252 ft 208 kts 92°
2026-05-06 21:58 40.14912 -3.39968 5917 ft 207 kts 56°
2026-05-06 21:59 40.16026 -3.38831 5614 ft 205 kts 19°
2026-05-06 21:59 40.17418 -3.38597 5373 ft 199 kts
2026-05-06 21:59 40.18798 -3.38533 5066 ft 198 kts
2026-05-06 21:59 40.20164 -3.38483 4908 ft 196 kts
2026-05-06 22:00 40.21538 -3.38426 4936 ft 198 kts
2026-05-06 22:00 40.22915 -3.38361 4913 ft 198 kts
2026-05-06 22:00 40.24276 -3.38292 4908 ft 198 kts
2026-05-06 22:00 40.25655 -3.38216 4917 ft 198 kts
2026-05-06 22:01 40.27030 -3.38115 4914 ft 198 kts
2026-05-06 22:01 40.28402 -3.38006 4914 ft 198 kts
2026-05-06 22:01 40.29774 -3.37896 4917 ft 194 kts
2026-05-06 22:01 40.31052 -3.37881 4858 ft 174 kts 349°
2026-05-06 22:02 40.32164 -3.38417 4879 ft 169 kts 333°
2026-05-06 22:02 40.33168 -3.39235 4898 ft 170 kts 327°
2026-05-06 22:02 40.34126 -3.40135 4901 ft 169 kts 324°
2026-05-06 22:02 40.35066 -3.41070 4899 ft 170 kts 323°
2026-05-06 22:03 40.36003 -3.42023 4690 ft 169 kts 323°
2026-05-06 22:03 40.36929 -3.42972 4473 ft 168 kts 323°
2026-05-06 22:03 40.37846 -3.43913 4261 ft 167 kts 324°
2026-05-06 22:03 40.38759 -3.44848 4048 ft 166 kts 324°
2026-05-06 22:04 40.39663 -3.45788 3815 ft 165 kts 323°
2026-05-06 22:04 40.40563 -3.46725 3561 ft 165 kts 323°
2026-05-06 22:04 40.41465 -3.47652 3309 ft 164 kts 325°
2026-05-06 22:04 40.42369 -3.48534 3096 ft 164 kts 325°
2026-05-06 22:05 40.43256 -3.49427 2926 ft 158 kts 324°
2026-05-06 22:05 40.44111 -3.50323 2714 ft 156 kts 324°
2026-05-06 22:05 40.44967 -3.51188 2496 ft 155 kts 324°
2026-05-06 22:05 40.45821 -3.52055 2320 ft 155 kts 323°
2026-05-06 22:06 40.46672 -3.52921 2096 ft 154 kts 323°
2026-05-06 22:06 40.47507 -3.53767 1947 ft 143 kts 323°
2026-05-06 22:06 40.48167 -3.54435 1964 ft 90 kts 322°
2026-05-06 22:06 40.48590 -3.54866 1979 ft 69 kts 322°
2026-05-06 22:07 40.48948 -3.55229 1986 ft 61 kts 322°
2026-05-06 22:07 40.49197 -3.55564 1993 ft 39 kts 300°
2026-05-06 22:07 40.49285 -3.55823 1995 ft 25 kts 290°
2026-05-06 22:07 40.49301 -3.55975 1992 ft 8 kts 270°
2026-05-06 22:08 40.49301 -3.55978 1992 ft 0 kts 270°
2026-05-06 22:08 40.49301 -3.55983 1992 ft 2 kts 270°
2026-05-06 22:08 40.49301 -3.56017 1991 ft 6 kts 270°
2026-05-06 22:09 40.49301 -3.56097 1988 ft 10 kts 270°
2026-05-06 22:09 40.49298 -3.56194 1987 ft 13 kts 257°
2026-05-06 22:09 40.49275 -3.56297 1982 ft 8 kts 263°
2026-05-06 22:09 40.49273 -3.56349 1980 ft 0 kts 270°
2026-05-06 22:10 40.49273 -3.56351 1980 ft 2 kts 270°
2026-05-06 22:10 40.49273 -3.56352 1980 ft 0 kts 270°